星链-34356 (STARLINK-34356)

导读 | 豆包AI

STARLINK-34356是美国SpaceX公司于2025年6月8日发射的星链低轨互联网通信卫星,属于全球规模最大卫星星座星链的组成部分。卫星采用平板设计,单星配备太阳能阵,以氪为工质的霍尔推进器,支持自主避撞控制,寿命末期可主动离轨再入大气层烧毁。 该卫星依托Ku、Ka波段通信载荷和光学星间链路技术,旨在为全球尤其是偏远未覆盖地区提供高速宽带互联网服务,助力缩小数字鸿沟,进一步扩充星链星座的全球服务覆盖能力。

基本信息
目录编号:
64303
目录名称:
STARLINK-34356
国际标识:
2025-123N
轨道中心:
EARTH
卫星名称:
星链-34356
卫星全名:
星链-34356 (STARLINK-34356)
卫星状态:
在轨 (已飞行325 天)
发射日期:
2025-06-08 UTC
国别 :
美国 (US)
星等 :
--
轨道信息
数据来源 国际轨道数据 AOE轨道数据
星历时间 2026-04-29T13:36:05+0800
9小时前
查看轨道信息
2026-04-23T01:00:00+0800
6天前
查看轨道信息
半长轴 6950.194km 6950.201km
偏心率 0.0002966 0.0003039
轨道倾角 70.002° 70.003°
近地点辐角 268.922° 278.410°
升交点赤经 66.852° 83.301°
平近点角 91.160° 175.471°
近地点 569.995km 569.951km
远地点 574.119km 574.177km
周期 96.107分钟 96.107分钟
每日圈数 14.983299 14.983274
详细信息
固有亮度:
5
最大亮度:
2.5
卫星平台:
Starlink V1.0
覆盖范围:
全球
运营商:
太空探索技术公司
运营商所在国:
美国
制造商(研发单位):
太空探索技术公司
制造商所在国:
美国
使用方式:
暂无
卫星简介
Starlink 计划是 SpaceX 推出的全球卫星互联网项目,通过发射低轨道卫星,为全球尤其是偏远地区提供高速、低延迟的互联网服务。自 2019 年起,Starlink 已部署数千颗卫星,旨在缩小全球数字鸿沟,推动互联网普及。该项目还为军事、航空等行业提供通信支持,带来广泛经济效益。
2D轨道图
3D轨道图
轨道高度分析图
轨道倾角分析图
轨道综合分析图
查看轨道综合分析图